FW1521 Weather Reports


time (UTC)temp
C
wind
direction
speed
KPH
gust
KPH
rain 1hr
cm
rain 24hr
cm
rain mn
cm
humidity
%
barometer
mb
20260510171516 31 314 8.0 25.7 0.00 0.00 0.00 62 1018.1
20260510170056 31 204 9.7 22.5 0.00 0.00 0.00 55 1018.1
20260510164512 31 278 3.2 11.3 0.00 0.00 0.00 60 1018.3
20260510163028 30 257 8.0 16.1 0.00 0.00 0.00 63 1018.5
20260510161552 29 267 4.8 12.9 0.00 0.00 0.00 66 1018.6
20260510160020 30 254 1.6 8.0 0.00 0.00 0.00 67 1018.7
20260510154550 29 234 1.6 8.0 0.00 0.00 0.00 66 1018.6
20260510153034 29 240 6.4 12.9 0.00 0.00 0.00 66 1018.8
20260510151552 30 251 6.4 12.9 0.00 0.00 0.00 65 1018.6
20260510150017 29 208 4.8 14.5 0.00 0.00 0.00 67 1018.7
20260510144536 29 285 3.2 14.5 0.00 0.00 0.00 68 1018.6
20260510143004 28 235 3.2 11.3 0.00 0.00 0.00 71 1018.6
20260510141532 28 251 4.8 14.5 0.00 0.00 0.00 71 1018.6
20260510140055 27 153 4.8 14.5 0.00 0.00 0.00 72 1018.4
20260510134524 27 226 3.2 12.9 0.00 0.00 0.00 74 1018.4
20260510133050 26 210 6.4 12.9 0.00 0.00 0.00 75 1018.4
20260510131509 25 214 1.6 12.9 0.00 0.00 0.00 76 1018.1
20260510130044 24 152 3.2 11.3 0.00 0.00 0.00 78 1018.4
20260510124605 23 174 1.6 6.4 0.00 0.00 0.00 80 1018.3
20260510123020 22 136 0.0 1.6 0.00 0.00 0.00 80 1018.1
20260510121542 21 136 0.0 0.0 0.00 0.00 0.00 81 1018.0
20260510120024 21 136 0.0 0.0 0.00 0.00 0.00 81 1017.7
20260510114540 21 136 0.0 0.0 0.00 0.00 0.00 81 1017.5
20260510113059 21 136 0.0 0.0 0.00 0.00 0.00 81 1017.1
20260510113001 21 136 0.0 0.0 0.00 0.00 0.00 81 1017.2
20260510111528 21 136 0.0 0.0 0.00 0.00 0.00 81 1017.0
20260510110047 20 136 0.0 0.0 0.00 0.00 0.00 81 1016.8
20260510104519 21 136 0.0 0.0 0.00 0.00 0.00 81 1016.6
20260510103047 21 136 0.0 0.0 0.00 0.00 0.00 80 1016.6
20260510101529 21 136 0.0 0.0 0.00 0.00 0.00 80 1016.4
20260510100043 21 136 0.0 3.2 0.00 0.00 0.00 80 1016.2
20260510094515 21 136 0.0 0.0 0.00 0.00 0.00 80 1016.1
20260510093039 21 136 0.0 1.6 0.00 0.00 0.00 80 1015.8
20260510091507 22 136 1.6 4.8 0.00 0.00 0.00 80 1015.7
20260510090045 22 139 0.0 3.2 0.00 0.00 0.00 80 1015.5
20260510084544 22 139 0.0 0.0 0.00 0.00 0.00 80 1015.3
20260510083017 22 139 0.0 3.2 0.00 0.00 0.00 80 1015.3
20260510081545 22 139 0.0 4.8 0.00 0.00 0.00 80 1015.1
20260510080018 22 140 0.0 4.8 0.00 0.00 0.00 80 1015.2
20260510074543 22 140 0.0 6.4 0.00 0.00 0.00 80 1015.1
20260510073013 22 138 0.0 8.0 0.00 0.00 0.00 80 1015.2
20260510071544 22 133 3.2 11.3 0.00 0.00 0.00 80 1015.2
20260510070010 22 134 1.6 8.0 0.00 0.00 0.00 79 1015.3
20260510064539 22 137 1.6 8.0 0.00 0.00 0.00 79 1015.4
20260510063007 22 133 0.0 6.4 0.00 0.00 0.00 79 1015.6
20260510061539 22 97 0.0 4.8 0.00 0.00 0.00 79 1015.8
20260510060002 22 97 3.2 6.4 0.00 0.00 0.00 79 1016.2
20260510054532 22 87 0.0 3.2 0.00 0.00 0.00 79 1016.3
20260510053059 22 87 0.0 0.0 0.00 0.00 0.00 78 1016.7
20260510053005 22 87 0.0 0.0 0.00 0.00 0.00 78 1016.8
20260510051534 22 87 0.0 0.0 0.00 0.00 0.00 78 1016.9
20260510050001 22 87 0.0 1.6 0.00 0.00 0.00 78 1017.0
20260510044533 22 87 0.0 0.0 0.00 0.00 0.00 78 1017.1
20260510043055 22 87 0.0 0.0 0.00 0.00 0.00 78 1017.3
20260510041531 23 87 0.0 0.0 0.00 0.00 0.00 78 1017.3
20260510040011 23 87 0.0 0.0 0.00 0.00 0.00 77 1017.3
20260510034531 23 87 0.0 0.0 0.00 0.00 0.00 77 1017.4
20260510033129 23 87 0.0 0.0 0.00 0.00 0.00 78 1017.4
20260510031525 23 87 0.0 1.6 0.00 0.00 0.00 77 1017.2
20260510030054 23 87 1.6 3.2 0.00 0.00 0.00 77 1017.1
20260510024527 23 87 0.0 1.6 0.00 0.00 0.00 77 1017.2
20260510023059 23 87 0.0 3.2 0.00 0.00 0.00 77 1016.9
20260510021526 23 87 0.0 3.2 0.00 0.00 0.00 77 1016.9
20260510020055 23 87 0.0 4.8 0.00 0.00 0.00 77 1016.6
20260510014521 23 87 0.0 6.4 0.00 0.00 0.00 77 1016.5
20260510013052 23 81 1.6 4.8 0.00 0.00 0.00 77 1016.5
20260510011517 23 81 0.0 4.8 0.00 0.00 0.00 77 1016.4
20260510010049 23 80 1.6 4.8 0.00 0.00 0.00 76 1016.0
20260510004522 23 43 3.2 8.0 0.00 0.00 0.00 76 1015.7
20260510003103 23 43 4.8 12.9 0.00 0.00 0.00 76 1015.6
20260510001525 23 32 3.2 9.7 0.00 0.00 0.00 75 1015.7
20260510000053 24 30 1.6 6.4 0.00 0.00 0.00 74 1015.6
20260509234536 24 31 3.2 19.3 0.00 0.00 0.00 74 1015.5
20260509233045 24 42 9.7 19.3 0.00 0.00 0.00 74 1015.6
20260509231517 25 16 4.8 16.1 0.00 0.00 0.00 74 1015.6
20260509230051 25 329 6.4 12.9 0.00 0.00 0.00 74 1015.5
20260509224529 25 354 6.4 19.3 0.00 0.00 0.00 74 1015.5
20260509223051 26 359 8.0 29.0 0.00 0.00 0.00 74 1015.6
20260509221522 27 18 3.2 14.5 0.00 0.00 0.00 71 1015.0
20260509220047 28 25 3.2 9.7 0.00 0.00 0.00 66 1014.9
20260509214516 28 301 3.2 9.7 0.00 0.00 0.00 66 1014.5
20260509213044 28 4 1.6 9.7 0.00 0.00 0.00 66 1014.5
20260509211510 28 343 3.2 14.5 0.00 0.00 0.00 65 1014.3
20260509210048 29 14 4.8 12.9 0.00 0.00 0.00 64 1014.2
20260509204508 29 359 3.2 14.5 0.00 0.00 0.00 65 1014.3
20260509203052 28 326 4.8 16.1 0.00 0.00 0.00 66 1014.2
20260509201514 29 354 4.8 14.5 0.00 0.00 0.00 65 1014.2
20260509200042 29 348 4.8 14.5 0.00 0.00 0.00 62 1014.2
20260509194510 29 314 8.0 16.1 0.00 0.00 0.00 61 1014.3
20260509193040 29 279 9.7 22.5 0.00 0.00 0.00 62 1014.2
20260509191600 28 262 9.7 19.3 0.00 0.00 0.00 65 1014.5
20260509191507 28 268 9.7 19.3 0.00 0.00 0.00 66 1014.5
20260509190030 28 41 0.0 4.8 0.00 0.00 0.00 70 1014.7
20260509184511 27 41 0.0 3.2 0.00 0.00 0.00 72 1014.7
20260509183032 27 41 0.0 6.4 0.00 0.00 0.00 72 1014.8
20260509181611 27 31 1.6 8.0 0.00 0.00 0.00 72 1015.1
20260509181502 28 31 1.6 8.0 0.00 0.00 0.00 72 1015.1
20260509180100 28 135 4.8 12.9 0.00 0.00 0.00 71 1015.0
20260509174507 28 242 6.4 25.7 0.00 0.00 0.00 68 1015.2
20260509173040 31 239 8.0 16.1 0.00 0.00 0.00 58 1015.0